Tracking 29892 objects as of 21-Nov-2024
HD Live streaming from Space Station
objects crossing your sky now

STARLINK-4614

Track STARLINK-4614 now!
10-day predictions
STARLINK-4614 is classified as:


NORAD ID: 53741
Int'l Code: 2022-107AT
Perigee: 546.1 km
Apogee: 547.6 km
Inclination: 53.2 °
Period: 95.4 minutes
Semi major axis: 6917 km
RCS: Unknown
Launch date: September 5, 2022
Source: United States (US)
Launch site: AIR FORCE EASTERN TEST RANGE (AFETR)
Your satellite tracking list
Your tracking list is empty




NASA's NSSDC Master Catalog

Two Line Element Set (TLE):
1 53741U 22107AT  24325.11563332  .00001399  00000-0  10596-3 0  9998
2 53741  53.2155 219.3344 0001098 108.3473 251.7639 15.08843507123160
Source of the keplerian elements: AFSPC